Location: Newark
(48.3453°N, 0.5589°E)
Time: 12:15:23
(UTC+00:00)

Courier 1B - Pass Details

Date: 15 December 2019
Orbit: 962 x 1209 km, 28.3° (Epoch: 20 January)

Event Time Altitude Azimuth Distance (km) Brightness Sun altitude
Rises 19:14:51 0° 213° (SSW) 3,777 11.0 -30.6°
Reaches altitude 10° 19:19:59 10° 181° (S) 2,894 10.0 -31.4°
Enters shadow 19:20:49 11° 174° (S) 2,845 9.9 -31.6°
